Private Wetterstation Wechselburg
Wetterdaten: Sonntag, 23.06.2019
Datum Zeit Temp. +2m Bodentemp. Temp.+5cm Temp. Wind Windchill X Diff Temp. Feuchte +2m Feuchte +5cm Luftdruck Regen Wind Richtung Richtung Sonnenschein Taupunkt Windchill Windben
23.06.2019 00:00 16,8 C 19,9 C 16,5 C 16,4 C 15,7 C 0,0 C 74 % 76 % 1020,5 hPa 0,0 l/m 0,0 km/h (0 Bft) NO 45 0 min 12,1 C 15,7 C 0,0 km/h (0 Bft)
23.06.2019 00:05 16,8 C 19,9 C 16,5 C 16,4 C 15,6 C 0,0 C 74 % 76 % 1020,6 hPa 0,0 l/m 0,0 km/h (0 Bft) NO 45 0 min 12,1 C 15,6 C 0,0 km/h (0 Bft)
23.06.2019 00:11 16,6 C 19,9 C 16,4 C 16,3 C 15,6 C 0,0 C 75 % 77 % 1020,6 hPa 0,0 l/m 0,0 km/h (0 Bft) N 0 0 min 12,1 C 15,6 C 0,0 km/h (0 Bft)
23.06.2019 00:26 16,5 C 19,8 C 16,3 C 16,1 C 15,3 C 0,0 C 76 % 77 % 1020,6 hPa 0,0 l/m 0,0 km/h (0 Bft) N-NO 22 0 min 12,3 C 15,3 C 0,0 km/h (0 Bft)
23.06.2019 00:27 16,5 C 19,8 C 16,3 C 16,1 C 15,3 C 0,0 C 76 % 77 % 1020,6 hPa 0,0 l/m 0,0 km/h (0 Bft) N-NO 22 0 min 12,3 C 15,3 C 0,0 km/h (0 Bft)
23.06.2019 00:40 16,2 C 19,8 C 16,2 C 15,9 C 15,3 C 0,0 C 77 % 77 % 1020,6 hPa 0,0 l/m 0,0 km/h (0 Bft) N-NO 22 0 min 12,2 C 15,3 C 0,0 km/h (0 Bft)
23.06.2019 00:45 16,2 C 19,8 C 16,1 C 15,9 C 15,4 C 0,0 C 77 % 77 % 1020,6 hPa 0,0 l/m 0,0 km/h (0 Bft) O-NO 67 0 min 12,2 C 15,4 C 0,0 km/h (0 Bft)
23.06.2019 00:50 16,1 C 19,7 C 16,1 C 15,9 C 15,4 C 0,0 C 77 % 77 % 1020,6 hPa 0,0 l/m 0,2 km/h (0 Bft) NO 45 0 min 12,1 C 15,4 C 0,0 km/h (0 Bft)
23.06.2019 00:55 16,3 C 19,7 C 16,0 C 16,1 C 15,7 C 0,0 C 77 % 78 % 1020,6 hPa 0,0 l/m 0,3 km/h (0 Bft) O-NO 67 0 min 12,3 C 15,7 C 0,0 km/h (0 Bft)
23.06.2019 01:00 16,3 C 19,7 C 16,0 C 16,1 C 15,8 C 0,0 C 77 % 78 % 1020,6 hPa 0,0 l/m 0,2 km/h (0 Bft) O-NO 67 0 min 12,3 C 15,8 C 0,0 km/h (0 Bft)
23.06.2019 01:05 16,2 C 19,7 C 16,0 C 16,1 C 15,8 C 0,0 C 77 % 78 % 1020,6 hPa 0,0 l/m 0,0 km/h (0 Bft) NO 45 0 min 12,2 C 15,8 C 0,0 km/h (0 Bft)
23.06.2019 01:10 16,3 C 19,7 C 16,0 C 16,1 C 15,7 C 0,0 C 77 % 78 % 1020,6 hPa 0,0 l/m 0,0 km/h (0 Bft) NO 45 0 min 12,3 C 15,7 C 0,0 km/h (0 Bft)
23.06.2019 01:15 16,1 C 19,7 C 16,0 C 15,9 C 15,4 C 0,0 C 77 % 78 % 1020,6 hPa 0,0 l/m 0,0 km/h (0 Bft) NO 45 0 min 12,1 C 15,4 C 0,0 km/h (0 Bft)
23.06.2019 01:20 16,0 C 19,7 C 15,9 C 15,8 C 15,3 C 0,0 C 77 % 78 % 1020,6 hPa 0,0 l/m 0,0 km/h (0 Bft) O-NO 67 0 min 12,0 C 15,3 C 0,0 km/h (0 Bft)
23.06.2019 01:25 15,9 C 19,7 C 15,7 C 15,6 C 15,1 C 0,0 C 77 % 78 % 1020,6 hPa 0,0 l/m 0,0 km/h (0 Bft) NO 45 0 min 11,9 C 15,1 C 0,0 km/h (0 Bft)
23.06.2019 01:30 15,8 C 19,7 C 15,6 C 15,5 C 15,0 C 0,0 C 77 % 78 % 1020,6 hPa 0,0 l/m 0,0 km/h (0 Bft) O-NO 67 0 min 11,8 C 15,0 C 0,0 km/h (0 Bft)
23.06.2019 01:35 15,7 C 19,6 C 15,5 C 15,4 C 14,9 C 0,0 C 77 % 79 % 1020,6 hPa 0,0 l/m 0,0 km/h (0 Bft) NO 45 0 min 11,7 C 14,9 C 0,0 km/h (0 Bft)
23.06.2019 01:40 15,6 C 19,6 C 15,5 C 15,3 C 14,8 C 0,0 C 78 % 79 % 1020,6 hPa 0,0 l/m 0,0 km/h (0 Bft) O-NO 67 0 min 11,8 C 14,8 C 0,0 km/h (0 Bft)
23.06.2019 01:45 15,5 C 19,6 C 15,3 C 15,3 C 14,8 C 0,0 C 78 % 79 % 1020,7 hPa 0,0 l/m 0,0 km/h (0 Bft) O-NO 67 0 min 11,7 C 14,8 C 0,0 km/h (0 Bft)
23.06.2019 01:50 15,5 C 19,6 C 15,3 C 15,2 C 14,7 C 0,0 C 78 % 79 % 1020,7 hPa 0,0 l/m 0,0 km/h (0 Bft) O-NO 67 0 min 11,7 C 14,7 C 0,0 km/h (0 Bft)
23.06.2019 01:55 15,4 C 19,6 C 15,2 C 15,1 C 14,6 C 0,0 C 78 % 79 % 1020,7 hPa 0,0 l/m 0,0 km/h (0 Bft) O-NO 67 0 min 11,6 C 14,6 C 1,6 km/h (1 Bft)
23.06.2019 02:00 15,3 C 19,6 C 15,2 C 15,1 C 14,6 C 0,0 C 78 % 79 % 1020,7 hPa 0,0 l/m 0,2 km/h (0 Bft) O 90 0 min 11,5 C 14,6 C 0,0 km/h (0 Bft)
23.06.2019 02:05 15,2 C 19,5 C 15,1 C 15,0 C 14,5 C 0,0 C 78 % 79 % 1020,8 hPa 0,0 l/m 0,2 km/h (0 Bft) NO 45 0 min 11,4 C 14,5 C 2,1 km/h (1 Bft)
23.06.2019 02:11 15,2 C 19,5 C 15,1 C 14,9 C 14,2 C 0,0 C 78 % 79 % 1020,8 hPa 0,0 l/m 0,0 km/h (0 Bft) N 0 0 min 11,4 C 14,2 C 0,0 km/h (0 Bft)
23.06.2019 02:26 14,9 C 19,5 C 14,9 C 14,7 C 14,3 C 0,0 C 79 % 80 % 1020,8 hPa 0,0 l/m 0,5 km/h (0 Bft) O-NO 67 0 min 11,3 C 14,3 C 2,4 km/h (1 Bft)
23.06.2019 02:35 14,9 C 19,5 C 14,9 C 14,8 C 14,6 C 0,0 C 79 % 80 % 1020,8 hPa 0,0 l/m 1,9 km/h (1 Bft) NO 45 0 min 11,3 C 14,6 C 3,4 km/h (1 Bft)
23.06.2019 02:40 15,0 C 19,5 C 14,9 C 14,9 C 14,8 C 0,0 C 79 % 80 % 1020,8 hPa 0,0 l/m 1,9 km/h (1 Bft) O-NO 67 0 min 11,4 C 14,8 C 0,0 km/h (0 Bft)
23.06.2019 02:45 15,1 C 19,5 C 15,1 C 15,0 C 14,9 C 0,0 C 79 % 79 % 1020,6 hPa 0,0 l/m 1,3 km/h (1 Bft) O-NO 67 0 min 11,5 C 14,9 C 1,6 km/h (1 Bft)
23.06.2019 02:50 15,2 C 19,5 C 15,1 C 15,1 C 15,0 C 0,0 C 78 % 79 % 1020,6 hPa 0,0 l/m 0,6 km/h (0 Bft) O-NO 67 0 min 11,4 C 15,0 C 0,0 km/h (0 Bft)
23.06.2019 02:55 15,2 C 19,5 C 15,1 C 15,1 C 15,0 C 0,0 C 78 % 78 % 1020,6 hPa 0,0 l/m 0,3 km/h (0 Bft) NO 45 0 min 11,4 C 15,0 C 0,0 km/h (0 Bft)
23.06.2019 03:00 15,3 C 19,5 C 15,1 C 15,2 C 15,0 C 0,0 C 78 % 78 % 1020,6 hPa 0,0 l/m 0,2 km/h (0 Bft) O 90 0 min 11,5 C 15,0 C 0,0 km/h (0 Bft)
23.06.2019 03:05 15,3 C 19,4 C 15,1 C 15,1 C 14,8 C 0,0 C 78 % 78 % 1020,7 hPa 0,0 l/m 0,2 km/h (0 Bft) NO 45 0 min 11,5 C 14,8 C 0,0 km/h (0 Bft)
23.06.2019 03:10 15,2 C 19,4 C 15,0 C 15,0 C 14,7 C 0,0 C 77 % 78 % 1020,7 hPa 0,0 l/m 0,5 km/h (0 Bft) O-NO 67 0 min 11,2 C 14,7 C 0,0 km/h (0 Bft)
23.06.2019 03:15 15,1 C 19,4 C 14,7 C 14,9 C 14,4 C 0,0 C 77 % 78 % 1020,7 hPa 0,0 l/m 0,3 km/h (0 Bft) NO 45 0 min 11,1 C 14,4 C 0,0 km/h (0 Bft)
23.06.2019 03:20 15,0 C 19,4 C 14,7 C 14,7 C 14,2 C 0,0 C 77 % 79 % 1020,7 hPa 0,0 l/m 0,0 km/h (0 Bft) O-NO 67 0 min 11,0 C 14,2 C 0,0 km/h (0 Bft)
23.06.2019 03:25 14,9 C 19,4 C 14,7 C 14,7 C 14,2 C 0,0 C 77 % 79 % 1020,8 hPa 0,0 l/m 0,2 km/h (0 Bft) O-NO 67 0 min 10,9 C 14,2 C 1,6 km/h (1 Bft)
23.06.2019 03:30 14,9 C 19,4 C 14,6 C 14,7 C 14,2 C 0,0 C 77 % 79 % 1020,8 hPa 0,0 l/m 0,5 km/h (0 Bft) O-NO 67 0 min 10,9 C 14,2 C 1,9 km/h (1 Bft)
23.06.2019 03:35 14,8 C 19,4 C 14,6 C 14,6 C 14,2 C 0,0 C 77 % 79 % 1020,8 hPa 0,0 l/m 1,3 km/h (1 Bft) O-NO 67 0 min 10,8 C 14,2 C 2,1 km/h (1 Bft)
23.06.2019 03:40 14,9 C 19,3 C 14,6 C 14,7 C 14,2 C 0,0 C 78 % 79 % 1020,8 hPa 0,0 l/m 1,1 km/h (1 Bft) O-NO 67 0 min 11,1 C 14,2 C 0,0 km/h (0 Bft)
23.06.2019 03:45 14,8 C 19,3 C 14,5 C 14,6 C 14,1 C 0,0 C 78 % 79 % 1020,9 hPa 0,0 l/m 0,3 km/h (0 Bft) O-NO 67 0 min 11,0 C 14,1 C 1,6 km/h (1 Bft)
23.06.2019 03:50 14,7 C 19,3 C 14,4 C 14,5 C 14,0 C 0,0 C 77 % 79 % 1020,9 hPa 0,0 l/m 0,2 km/h (0 Bft) O-NO 67 0 min 10,7 C 14,0 C 1,8 km/h (1 Bft)
23.06.2019 03:55 14,6 C 19,3 C 14,3 C 14,3 C 13,8 C 0,0 C 77 % 79 % 1020,9 hPa 0,0 l/m 0,0 km/h (0 Bft) O 90 0 min 10,6 C 13,8 C 0,0 km/h (0 Bft)
23.06.2019 04:00 14,5 C 19,3 C 14,3 C 14,2 C 13,6 C 0,0 C 78 % 79 % 1020,9 hPa 0,0 l/m 0,0 km/h (0 Bft) NO 45 0 min 10,7 C 13,6 C 0,0 km/h (0 Bft)
23.06.2019 04:05 14,5 C 19,3 C 14,2 C 14,1 C 13,4 C 0,0 C 78 % 79 % 1020,8 hPa 0,0 l/m 0,0 km/h (0 Bft) NO 45 0 min 10,7 C 13,4 C 0,0 km/h (0 Bft)
23.06.2019 04:11 14,3 C 19,3 C 14,1 C 14,0 C 13,4 C 0,0 C 78 % 79 % 1020,8 hPa 0,0 l/m 0,0 km/h (0 Bft) N 0 0 min 10,5 C 13,4 C 0,0 km/h (0 Bft)
23.06.2019 04:24 14,0 C 19,2 C 13,7 C 13,5 C 12,5 C 0,0 C 78 % 81 % 1020,8 hPa 0,0 l/m 0,0 km/h (0 Bft) N-NO 22 0 min 10,2 C 12,5 C 0,0 km/h (0 Bft)
23.06.2019 04:25 14,0 C 19,2 C 13,7 C 13,5 C 12,5 C 0,0 C 78 % 81 % 1020,8 hPa 0,0 l/m 0,0 km/h (0 Bft) N-NO 22 0 min 10,2 C 12,5 C 0,0 km/h (0 Bft)
23.06.2019 04:35 13,7 C 19,2 C 13,6 C 13,2 C 12,2 C 0,0 C 78 % 81 % 1020,8 hPa 0,0 l/m 0,0 km/h (0 Bft) NW 315 0 min 9,9 C 12,2 C 0,0 km/h (0 Bft)
23.06.2019 04:40 13,6 C 19,2 C 13,5 C 13,1 C 12,1 C 0,0 C 79 % 81 % 1020,8 hPa 0,0 l/m 0,0 km/h (0 Bft) N-NO 22 0 min 10,0 C 12,1 C 0,0 km/h (0 Bft)
23.06.2019 04:45 13,6 C 19,2 C 13,5 C 13,1 C 12,1 C 0,0 C 79 % 82 % 1020,9 hPa 0,0 l/m 0,0 km/h (0 Bft) O-NO 67 0 min 10,0 C 12,1 C 0,0 km/h (0 Bft)
23.06.2019 04:50 13,5 C 19,2 C 13,4 C 13,0 C 12,1 C 0,0 C 80 % 82 % 1020,9 hPa 0,0 l/m 0,3 km/h (0 Bft) O-NO 67 0 min 10,1 C 12,1 C 2,3 km/h (1 Bft)
23.06.2019 04:55 13,4 C 19,2 C 13,3 C 13,0 C 12,3 C 0,0 C 80 % 82 % 1020,9 hPa 0,0 l/m 1,1 km/h (1 Bft) NO 45 0 min 10,0 C 12,3 C 1,8 km/h (1 Bft)
23.06.2019 05:00 13,3 C 19,1 C 13,3 C 13,0 C 12,3 C 0,0 C 80 % 82 % 1020,9 hPa 0,0 l/m 1,4 km/h (1 Bft) O-NO 67 0 min 9,9 C 12,3 C 2,1 km/h (1 Bft)
23.06.2019 05:05 13,3 C 19,1 C 13,2 C 13,0 C 12,4 C 0,0 C 81 % 82 % 1021,6 hPa 0,0 l/m 0,5 km/h (0 Bft) O-NO 67 0 min 10,1 C 12,4 C 0,0 km/h (0 Bft)
23.06.2019 05:10 13,2 C 19,1 C 13,2 C 12,9 C 12,4 C 0,0 C 81 % 82 % 1021,6 hPa 0,0 l/m 0,2 km/h (0 Bft) O-NO 67 0 min 10,0 C 12,4 C 0,0 km/h (0 Bft)
23.06.2019 05:15 13,1 C 19,1 C 13,1 C 12,8 C 12,1 C 0,0 C 81 % 82 % 1021,6 hPa 0,0 l/m 0,0 km/h (0 Bft) SW 225 0 min 9,9 C 12,1 C 0,0 km/h (0 Bft)
23.06.2019 05:20 13,0 C 19,1 C 13,0 C 12,6 C 11,9 C 0,0 C 81 % 83 % 1021,6 hPa 0,0 l/m 0,0 km/h (0 Bft) W-NW 292 0 min 9,8 C 11,9 C 0,0 km/h (0 Bft)
23.06.2019 05:25 13,0 C 19,1 C 12,9 C 12,6 C 11,8 C 0,0 C 82 % 83 % 1021,2 hPa 0,0 l/m 0,0 km/h (0 Bft) NO 45 0 min 10,0 C 11,8 C 0,0 km/h (0 Bft)
23.06.2019 05:30 12,9 C 19,1 C 13,0 C 12,6 C 11,9 C 0,0 C 82 % 83 % 1021,2 hPa 0,0 l/m 0,2 km/h (0 Bft) NO 45 0 min 9,9 C 11,9 C 1,6 km/h (1 Bft)
23.06.2019 05:35 13,0 C 19,0 C 13,1 C 12,8 C 12,4 C 0,0 C 82 % 83 % 1021,2 hPa 0,0 l/m 0,5 km/h (0 Bft) O-NO 67 0 min 10,0 C 12,4 C 0,0 km/h (0 Bft)
23.06.2019 05:40 13,0 C 19,0 C 13,1 C 12,9 C 12,7 C 0,0 C 82 % 83 % 1021,2 hPa 0,0 l/m 0,5 km/h (0 Bft) N-NO 22 0 min 10,0 C 12,7 C 0,0 km/h (0 Bft)
23.06.2019 05:45 13,0 C 19,0 C 13,3 C 13,0 C 12,9 C 0,0 C 82 % 83 % 1020,9 hPa 0,0 l/m 0,0 km/h (0 Bft) N-NO 22 0 min 10,0 C 12,9 C 0,0 km/h (0 Bft)
23.06.2019 05:50 13,1 C 19,0 C 13,5 C 13,1 C 13,0 C 0,0 C 82 % 83 % 1020,9 hPa 0,0 l/m 0,0 km/h (0 Bft) NO 45 0 min 10,1 C 13,0 C 0,0 km/h (0 Bft)
23.06.2019 05:55 13,3 C 19,0 C 13,6 C 13,3 C 13,2 C 0,0 C 83 % 82 % 1020,9 hPa 0,0 l/m 0,0 km/h (0 Bft) O-NO 67 0 min 10,5 C 13,2 C 1,6 km/h (1 Bft)
23.06.2019 06:00 13,3 C 18,9 C 13,7 C 13,4 C 13,4 C 0,1 C 82 % 82 % 1020,9 hPa 0,0 l/m 0,2 km/h (0 Bft) O-NO 67 0 min 10,3 C 13,4 C 0,0 km/h (0 Bft)
23.06.2019 06:05 13,3 C 18,9 C 13,7 C 13,5 C 13,5 C 0,2 C 82 % 82 % 1021,2 hPa 0,0 l/m 0,2 km/h (0 Bft) S 180 0 min 10,3 C 13,5 C 0,0 km/h (0 Bft)
23.06.2019 06:11 13,3 C 18,9 C 13,7 C 13,4 C 13,4 C 0,1 C 82 % 82 % 1021,2 hPa 0,0 l/m 0,0 km/h (0 Bft) N 0 0 min 10,3 C 13,4 C 0,0 km/h (0 Bft)
23.06.2019 06:26 13,5 C 18,9 C 13,9 C 13,5 C 13,5 C 0,0 C 83 % 83 % 1021,2 hPa 0,0 l/m 0,2 km/h (0 Bft) NO 45 0 min 10,7 C 13,5 C 1,6 km/h (1 Bft)
23.06.2019 06:35 13,7 C 18,8 C 14,1 C 14,2 C 14,2 C 0,5 C 83 % 82 % 1021,2 hPa 0,0 l/m 0,2 km/h (0 Bft) NO 45 0 min 10,9 C 14,2 C 0,0 km/h (0 Bft)
23.06.2019 06:40 13,9 C 18,8 C 14,3 C 14,5 C 14,5 C 0,6 C 83 % 82 % 1021,2 hPa 0,0 l/m 0,2 km/h (0 Bft) NO 45 0 min 11,1 C 14,5 C 0,0 km/h (0 Bft)
23.06.2019 06:45 14,1 C 18,8 C 14,6 C 14,9 C 14,9 C 0,8 C 83 % 82 % 1021,6 hPa 0,0 l/m 0,2 km/h (0 Bft) NW 315 0 min 11,3 C 14,9 C 0,0 km/h (0 Bft)
23.06.2019 06:50 14,3 C 18,7 C 14,6 C 15,1 C 15,1 C 0,8 C 83 % 81 % 1021,6 hPa 0,0 l/m 0,2 km/h (0 Bft) O-SO 112 0 min 11,5 C 15,1 C 1,6 km/h (1 Bft)
23.06.2019 06:55 14,4 C 18,7 C 15,2 C 15,4 C 15,4 C 1,0 C 82 % 80 % 1021,6 hPa 0,0 l/m 0,3 km/h (0 Bft) NW 315 0 min 11,4 C 15,4 C 0,0 km/h (0 Bft)
23.06.2019 07:00 14,5 C 18,7 C 15,4 C 15,9 C 15,9 C 1,4 C 82 % 79 % 1021,6 hPa 0,0 l/m 0,2 km/h (0 Bft) O 90 0 min 11,5 C 15,9 C 1,8 km/h (1 Bft)
23.06.2019 07:05 14,8 C 18,7 C 15,7 C 18,5 C 18,5 C 3,7 C 82 % 78 % 1021,4 hPa 0,0 l/m 0,0 km/h (0 Bft) O-NO 67 5 min 11,8 C 18,5 C 0,0 km/h (0 Bft)
23.06.2019 07:10 14,9 C 18,7 C 15,9 C 20,3 C 20,3 C 5,4 C 82 % 77 % 1021,4 hPa 0,0 l/m 0,0 km/h (0 Bft) NO 45 5 min 11,9 C 20,3 C 0,0 km/h (0 Bft)
23.06.2019 07:15 15,6 C 18,7 C 16,2 C 21,3 C 21,3 C 5,7 C 81 % 77 % 1021,4 hPa 0,0 l/m 1,3 km/h (1 Bft) O-NO 67 5 min 12,3 C 21,3 C 4,0 km/h (1 Bft)
23.06.2019 07:20 15,8 C 18,7 C 16,4 C 21,6 C 21,6 C 5,8 C 80 % 76 % 1021,4 hPa 0,0 l/m 1,9 km/h (1 Bft) W-NW 292 5 min 12,4 C 21,6 C 0,0 km/h (0 Bft)
23.06.2019 07:25 16,3 C 18,7 C 16,7 C 23,0 C 23,0 C 6,7 C 79 % 75 % 1021,6 hPa 0,0 l/m 1,3 km/h (1 Bft) O-NO 67 5 min 12,6 C 23,0 C 3,4 km/h (1 Bft)
23.06.2019 07:30 16,7 C 18,7 C 16,8 C 23,5 C 23,5 C 6,8 C 78 % 73 % 1021,6 hPa 0,0 l/m 1,0 km/h (0 Bft) O-NO 67 5 min 12,8 C 23,5 C 2,6 km/h (1 Bft)
23.06.2019 07:35 17,1 C 18,7 C 17,0 C 23,8 C 23,8 C 6,7 C 77 % 73 % 1021,6 hPa 0,0 l/m 1,6 km/h (1 Bft) O-NO 67 5 min 13,0 C 23,8 C 3,2 km/h (1 Bft)
23.06.2019 07:40 17,5 C 18,7 C 17,2 C 24,0 C 24,0 C 6,5 C 76 % 74 % 1021,6 hPa 0,0 l/m 1,4 km/h (1 Bft) N-NO 22 5 min 13,2 C 24,0 C 1,6 km/h (1 Bft)
23.06.2019 07:45 17,7 C 18,7 C 17,5 C 24,5 C 24,5 C 6,8 C 75 % 72 % 1021,9 hPa 0,0 l/m 1,9 km/h (1 Bft) O-NO 67 5 min 13,2 C 24,5 C 5,5 km/h (1 Bft)
23.06.2019 07:50 17,9 C 18,7 C 17,5 C 24,6 C 24,6 C 6,7 C 74 % 73 % 1021,9 hPa 0,0 l/m 2,1 km/h (1 Bft) N-NW 337 5 min 13,2 C 24,6 C 2,4 km/h (1 Bft)
23.06.2019 07:55 18,2 C 18,7 C 17,7 C 25,5 C 25,5 C 7,3 C 73 % 72 % 1021,9 hPa 0,0 l/m 1,9 km/h (1 Bft) SW 225 5 min 13,3 C 25,5 C 0,0 km/h (0 Bft)
23.06.2019 08:00 18,5 C 18,7 C 17,8 C 26,3 C 26,3 C 7,8 C 72 % 71 % 1021,9 hPa 0,0 l/m 1,1 km/h (1 Bft) SW 225 5 min 13,4 C 26,3 C 1,9 km/h (1 Bft)
23.06.2019 08:05 18,7 C 18,7 C 17,9 C 27,2 C 27,2 C 8,5 C 71 % 70 % 1021,8 hPa 0,0 l/m 0,8 km/h (0 Bft) N-NO 22 5 min 13,3 C 27,2 C 1,6 km/h (1 Bft)
23.06.2019 08:11 18,9 C 18,7 C 18,0 C 27,2 C 27,2 C 8,3 C 71 % 69 % 1021,8 hPa 0,0 l/m 1,1 km/h (1 Bft) N 0 6 min 13,5 C 27,2 C 1,8 km/h (1 Bft)
23.06.2019 08:26 19,7 C 18,6 C 18,4 C 27,1 C 27,1 C 7,4 C 69 % 69 % 1022,0 hPa 0,0 l/m 2,3 km/h (1 Bft) O-NO 67 15 min 13,8 C 27,1 C 7,4 km/h (2 Bft)
23.06.2019 08:35 20,2 C 18,6 C 18,7 C 27,6 C 27,6 C 7,4 C 67 % 69 % 1022,0 hPa 0,0 l/m 1,9 km/h (1 Bft) O-NO 67 9 min 13,9 C 27,6 C 0,0 km/h (0 Bft)
23.06.2019 08:40 20,3 C 18,6 C 18,8 C 28,0 C 28,0 C 7,7 C 67 % 69 % 1022,0 hPa 0,0 l/m 1,8 km/h (1 Bft) N-NW 337 5 min 14,0 C 28,0 C 1,8 km/h (1 Bft)
23.06.2019 08:45 20,5 C 18,6 C 18,8 C 28,1 C 28,1 C 7,6 C 66 % 68 % 1021,9 hPa 0,0 l/m 1,8 km/h (1 Bft) O-SO 112 5 min 13,9 C 28,1 C 2,9 km/h (1 Bft)
23.06.2019 08:50 20,7 C 18,6 C 18,9 C 28,7 C 28,7 C 8,0 C 67 % 68 % 1021,9 hPa 0,0 l/m 1,4 km/h (1 Bft) N-NW 337 5 min 14,3 C 28,7 C 1,6 km/h (1 Bft)
23.06.2019 08:55 21,2 C 18,6 C 19,0 C 29,0 C 29,0 C 7,8 C 66 % 68 % 1021,9 hPa 0,0 l/m 1,4 km/h (1 Bft) N-NO 22 5 min 14,6 C 29,0 C 0,0 km/h (0 Bft)
23.06.2019 09:00 21,2 C 18,6 C 19,2 C 29,0 C 29,0 C 7,8 C 65 % 69 % 1021,9 hPa 0,0 l/m 1,8 km/h (1 Bft) W-SW 247 5 min 14,4 C 29,0 C 2,6 km/h (1 Bft)
23.06.2019 09:05 21,3 C 18,6 C 19,3 C 29,0 C 29,0 C 7,7 C 65 % 67 % 1021,9 hPa 0,0 l/m 2,1 km/h (1 Bft) O 90 5 min 14,4 C 29,0 C 2,1 km/h (1 Bft)
23.06.2019 09:10 21,7 C 18,6 C 19,4 C 29,0 C 29,0 C 7,3 C 65 % 66 % 1021,9 hPa 0,0 l/m 2,4 km/h (1 Bft) O-NO 67 5 min 14,8 C 29,0 C 4,8 km/h (1 Bft)
23.06.2019 09:15 22,1 C 18,6 C 19,5 C 28,6 C 28,6 C 6,5 C 62 % 65 % 1021,9 hPa 0,0 l/m 2,7 km/h (1 Bft) O 90 5 min 14,5 C 28,6 C 4,3 km/h (1 Bft)
23.06.2019 09:20 22,2 C 18,6 C 19,6 C 28,5 C 28,5 C 6,3 C 63 % 65 % 1021,9 hPa 0,0 l/m 3,1 km/h (1 Bft) O 90 5 min 14,8 C 28,5 C 5,3 km/h (1 Bft)
23.06.2019 09:25 22,6 C 18,6 C 19,8 C 28,6 C 28,6 C 6,0 C 62 % 65 % 1021,8 hPa 0,0 l/m 2,7 km/h (1 Bft) NW 315 5 min 14,9 C 28,6 C 2,6 km/h (1 Bft)
23.06.2019 09:30 22,7 C 18,6 C 19,9 C 29,0 C 29,0 C 6,3 C 61 % 65 % 1021,8 hPa 0,0 l/m 2,6 km/h (1 Bft) O-NO 67 5 min 14,8 C 29,0 C 4,0 km/h (1 Bft)
23.06.2019 09:35 22,5 C 18,6 C 20,1 C 29,2 C 29,2 C 6,7 C 60 % 65 % 1021,8 hPa 0,0 l/m 2,7 km/h (1 Bft) SO 135 5 min 14,3 C 29,2 C 7,2 km/h (2 Bft)
23.06.2019 09:40 22,3 C 18,7 C 20,4 C 28,7 C 28,7 C 6,4 C 60 % 63 % 1021,8 hPa 0,0 l/m 4,0 km/h (1 Bft) O-NO 67 5 min 14,2 C 28,7 C 7,1 km/h (2 Bft)
23.06.2019 09:45 21,9 C 18,7 C 20,5 C 26,5 C 26,5 C 4,6 C 61 % 63 % 1021,8 hPa 0,0 l/m 5,1 km/h (1 Bft) O-NO 67 5 min 14,0 C 26,5 C 9,7 km/h (2 Bft)
23.06.2019 09:50 22,1 C 18,7 C 20,5 C 25,2 C 25,2 C 3,1 C 62 % 65 % 1021,8 hPa 0,0 l/m 4,0 km/h (1 Bft) NO 45 0 min 14,5 C 25,2 C 2,6 km/h (1 Bft)
23.06.2019 09:55 22,5 C 18,6 C 20,9 C 27,5 C 27,5 C 5,0 C 62 % 64 % 1021,8 hPa 0,0 l/m 2,1 km/h (1 Bft) N-NO 22 5 min 14,8 C 27,5 C 5,8 km/h (2 Bft)
23.06.2019 10:00 22,7 C 18,6 C 20,9 C 28,5 C 28,5 C 5,8 C 61 % 63 % 1021,8 hPa 0,0 l/m 2,3 km/h (1 Bft) O-NO 67 5 min 14,8 C 28,5 C 3,5 km/h (1 Bft)
23.06.2019 10:05 22,6 C 18,6 C 21,1 C 29,4 C 29,4 C 6,8 C 61 % 62 % 1022,0 hPa 0,0 l/m 3,1 km/h (1 Bft) O-NO 67 5 min 14,7 C 29,4 C 5,1 km/h (1 Bft)
23.06.2019 10:11 22,7 C 18,6 C 21,2 C 28,9 C 28,9 C 6,2 C 59 % 61 % 1022,0 hPa 0,0 l/m 4,0 km/h (1 Bft) N 0 6 min 14,3 C 28,9 C 3,5 km/h (1 Bft)
23.06.2019 10:26 22,9 C 18,6 C 21,7 C 28,2 C 28,2 C 5,3 C 60 % 61 % 1021,9 hPa 0,0 l/m 4,8 km/h (1 Bft) O-NO 67 15 min 14,7 C 28,2 C 12,7 km/h (3 Bft)
23.06.2019 10:35 23,2 C 18,7 C 22,1 C 28,8 C 28,8 C 5,6 C 57 % 58 % 1021,9 hPa 0,0 l/m 5,3 km/h (1 Bft) O-NO 67 9 min 14,2 C 28,8 C 16,4 km/h (3 Bft)
23.06.2019 10:40 23,1 C 18,7 C 22,1 C 28,0 C 28,0 C 4,9 C 58 % 58 % 1021,9 hPa 0,0 l/m 6,6 km/h (2 Bft) NO 45 5 min 14,4 C 28,0 C 5,8 km/h (2 Bft)
23.06.2019 10:45 23,5 C 18,7 C 22,3 C 28,6 C 28,6 C 5,1 C 58 % 57 % 1021,8 hPa 0,0 l/m 5,6 km/h (1 Bft) O-NO 67 5 min 14,7 C 28,6 C 6,8 km/h (2 Bft)
23.06.2019 10:50 23,8 C 18,7 C 22,5 C 29,1 C 29,1 C 5,3 C 57 % 57 % 1021,8 hPa 0,0 l/m 4,2 km/h (1 Bft) O-NO 67 5 min 14,8 C 29,1 C 3,7 km/h (1 Bft)
23.06.2019 10:55 24,0 C 18,7 C 22,6 C 29,1 C 29,1 C 5,1 C 57 % 57 % 1021,8 hPa 0,0 l/m 4,7 km/h (1 Bft) O-NO 67 5 min 14,9 C 29,1 C 8,7 km/h (2 Bft)
23.06.2019 11:00 24,0 C 18,7 C 22,7 C 28,7 C 28,7 C 4,7 C 56 % 57 % 1021,8 hPa 0,0 l/m 6,3 km/h (2 Bft) NO 45 5 min 14,7 C 28,7 C 12,1 km/h (2 Bft)
23.06.2019 11:05 24,0 C 18,8 C 22,8 C 28,5 C 28,5 C 4,5 C 56 % 57 % 1021,9 hPa 0,0 l/m 7,2 km/h (2 Bft) O-NO 67 5 min 14,7 C 28,5 C 16,7 km/h (3 Bft)
23.06.2019 11:10 24,3 C 18,8 C 23,0 C 28,6 C 28,6 C 4,3 C 55 % 55 % 1021,9 hPa 0,0 l/m 7,2 km/h (2 Bft) O-NO 67 5 min 14,7 C 28,6 C 10,8 km/h (2 Bft)
23.06.2019 11:15 24,1 C 18,8 C 23,0 C 28,0 C 28,0 C 3,9 C 55 % 54 % 1021,9 hPa 0,0 l/m 7,9 km/h (2 Bft) O-NO 67 5 min 14,5 C 28,0 C 6,3 km/h (2 Bft)
23.06.2019 11:20 24,0 C 18,8 C 23,1 C 27,8 C 27,8 C 3,8 C 55 % 54 % 1021,9 hPa 0,0 l/m 8,4 km/h (2 Bft) O-NO 67 5 min 14,4 C 27,8 C 16,9 km/h (3 Bft)
23.06.2019 11:25 23,8 C 18,8 C 23,1 C 27,4 C 27,4 C 3,6 C 54 % 54 % 1021,8 hPa 0,0 l/m 9,7 km/h (2 Bft) O-NO 67 5 min 13,9 C 27,4 C 5,6 km/h (1 Bft)
23.06.2019 11:30 23,8 C 18,8 C 23,2 C 27,6 C 27,6 C 3,8 C 55 % 54 % 1021,8 hPa 0,0 l/m 9,3 km/h (2 Bft) O-NO 67 5 min 14,2 C 27,6 C 9,5 km/h (2 Bft)
23.06.2019 11:35 24,0 C 18,9 C 23,3 C 27,7 C 27,7 C 3,7 C 55 % 54 % 1021,8 hPa 0,0 l/m 8,0 km/h (2 Bft) N-NO 22 5 min 14,4 C 27,7 C 8,2 km/h (2 Bft)
23.06.2019 11:40 24,2 C 18,9 C 23,6 C 28,2 C 28,2 C 4,0 C 57 % 55 % 1021,8 hPa 0,0 l/m 7,6 km/h (2 Bft) O-NO 67 5 min 15,1 C 28,2 C 7,2 km/h (2 Bft)
23.06.2019 11:45 24,4 C 18,8 C 23,8 C 28,8 C 28,8 C 4,4 C 55 % 53 % 1021,9 hPa 0,0 l/m 6,4 km/h (2 Bft) S-SO 157 5 min 14,8 C 28,8 C 17,9 km/h (3 Bft)
23.06.2019 11:50 24,3 C 18,8 C 23,6 C 28,5 C 28,5 C 4,2 C 55 % 53 % 1021,9 hPa 0,0 l/m 7,2 km/h (2 Bft) NO 45 5 min 14,7 C 28,5 C 4,5 km/h (1 Bft)
23.06.2019 11:55 24,2 C 18,8 C 23,6 C 28,1 C 28,1 C 3,9 C 55 % 54 % 1021,9 hPa 0,0 l/m 8,9 km/h (2 Bft) O 90 5 min 14,6 C 28,1 C 18,5 km/h (3 Bft)
23.06.2019 12:00 24,3 C 18,9 C 23,8 C 28,3 C 28,3 C 4,0 C 55 % 53 % 1021,9 hPa 0,0 l/m 8,4 km/h (2 Bft) O-NO 67 5 min 14,7 C 28,3 C 20,0 km/h (4 Bft)
23.06.2019 12:05 24,3 C 18,9 C 23,8 C 28,0 C 28,0 C 3,7 C 54 % 52 % 1021,8 hPa 0,0 l/m 9,3 km/h (2 Bft) O-NO 67 5 min 14,4 C 28,0 C 11,9 km/h (2 Bft)
23.06.2019 12:11 24,4 C 18,9 C 24,0 C 27,8 C 27,8 C 3,4 C 55 % 52 % 1021,8 hPa 0,0 l/m 10,5 km/h (2 Bft) N 0 6 min 14,8 C 27,8 C 5,3 km/h (1 Bft)
23.06.2019 12:26 25,1 C 19,0 C 24,5 C 28,9 C 28,9 C 3,8 C 54 % 53 % 1021,8 hPa 0,0 l/m 6,8 km/h (2 Bft) NO 45 15 min 15,1 C 28,9 C 21,6 km/h (4 Bft)
23.06.2019 12:35 25,2 C 19,0 C 24,5 C 28,8 C 28,8 C 3,6 C 53 % 52 % 1021,8 hPa 0,0 l/m 6,6 km/h (2 Bft) O-NO 67 9 min 14,9 C 28,8 C 7,7 km/h (2 Bft)
23.06.2019 12:40 25,4 C 19,0 C 24,7 C 29,0 C 29,0 C 3,6 C 52 % 51 % 1021,8 hPa 0,0 l/m 8,0 km/h (2 Bft) O-NO 67 5 min 14,8 C 29,0 C 12,7 km/h (3 Bft)
23.06.2019 12:45 25,7 C 19,1 C 24,9 C 29,1 C 29,1 C 3,4 C 51 % 50 % 1021,7 hPa 0,0 l/m 9,3 km/h (2 Bft) O-NO 67 5 min 14,8 C 29,1 C 16,1 km/h (3 Bft)
23.06.2019 12:50 25,5 C 19,1 C 24,8 C 28,9 C 28,9 C 3,4 C 51 % 51 % 1021,7 hPa 0,0 l/m 9,3 km/h (2 Bft) O-NO 67 5 min 14,6 C 28,9 C 7,2 km/h (2 Bft)
23.06.2019 12:55 25,8 C 19,1 C 25,3 C 29,4 C 29,4 C 3,6 C 53 % 52 % 1021,7 hPa 0,0 l/m 7,7 km/h (2 Bft) SO 135 5 min 15,5 C 29,4 C 4,8 km/h (1 Bft)
23.06.2019 13:00 26,1 C 19,1 C 25,4 C 29,9 C 29,9 C 3,8 C 51 % 50 % 1021,7 hPa 0,0 l/m 6,1 km/h (2 Bft) O-NO 67 5 min 15,2 C 29,9 C 7,7 km/h (2 Bft)
23.06.2019 13:05 26,1 C 19,1 C 25,5 C 29,8 C 29,8 C 3,7 C 51 % 50 % 1021,7 hPa 0,0 l/m 6,9 km/h (2 Bft) NO 45 5 min 15,2 C 29,8 C 10,1 km/h (2 Bft)
23.06.2019 13:10 26,1 C 19,2 C 25,4 C 29,2 C 29,2 C 3,1 C 51 % 50 % 1021,7 hPa 0,0 l/m 8,0 km/h (2 Bft) O-NO 67 0 min 15,2 C 29,2 C 10,1 km/h (2 Bft)
23.06.2019 13:15 26,0 C 19,2 C 26,0 C 29,3 C 29,3 C 3,3 C 51 % 48 % 1021,7 hPa 0,0 l/m 8,5 km/h (2 Bft) O-NO 67 5 min 15,1 C 29,3 C 17,4 km/h (3 Bft)
23.06.2019 13:20 26,1 C 19,1 C 26,0 C 29,4 C 29,4 C 3,3 C 51 % 50 % 1021,7 hPa 0,0 l/m 8,7 km/h (2 Bft) O-NO 67 5 min 15,2 C 29,4 C 11,7 km/h (2 Bft)
23.06.2019 13:25 26,2 C 19,1 C 26,1 C 29,9 C 29,9 C 3,7 C 51 % 49 % 1021,6 hPa 0,0 l/m 8,4 km/h (2 Bft) O-NO 67 5 min 15,2 C 29,9 C 7,2 km/h (2 Bft)
23.06.2019 13:30 26,4 C 19,2 C 26,1 C 30,1 C 30,1 C 3,7 C 51 % 50 % 1021,6 hPa 0,0 l/m 8,4 km/h (2 Bft) O-NO 67 5 min 15,4 C 30,1 C 11,3 km/h (2 Bft)
23.06.2019 13:35 26,5 C 19,2 C 25,9 C 30,3 C 30,3 C 3,8 C 50 % 48 % 1021,6 hPa 0,0 l/m 7,7 km/h (2 Bft) N-NO 22 5 min 15,2 C 30,3 C 6,1 km/h (2 Bft)
23.06.2019 13:40 26,4 C 19,2 C 25,7 C 29,9 C 29,9 C 3,5 C 50 % 49 % 1021,6 hPa 0,0 l/m 7,2 km/h (2 Bft) O-NO 67 5 min 15,1 C 29,9 C 11,3 km/h (2 Bft)
23.06.2019 13:45 26,1 C 19,2 C 25,8 C 29,2 C 29,2 C 3,1 C 50 % 49 % 1021,6 hPa 0,0 l/m 7,9 km/h (2 Bft) N-NO 22 0 min 14,8 C 29,2 C 10,9 km/h (2 Bft)
23.06.2019 13:50 26,1 C 19,2 C 25,9 C 29,6 C 29,6 C 3,5 C 51 % 50 % 1021,6 hPa 0,0 l/m 8,5 km/h (2 Bft) NO 45 5 min 15,2 C 29,6 C 3,7 km/h (1 Bft)
23.06.2019 13:55 26,1 C 19,3 C 25,6 C 29,2 C 29,2 C 3,1 C 50 % 49 % 1021,6 hPa 0,0 l/m 7,9 km/h (2 Bft) NO 45 0 min 14,8 C 29,2 C 5,8 km/h (2 Bft)
23.06.2019 14:00 26,0 C 19,3 C 25,5 C 28,7 C 28,7 C 2,7 C 51 % 50 % 1021,6 hPa 0,0 l/m 7,1 km/h (2 Bft) N-NO 22 0 min 15,1 C 28,7 C 5,5 km/h (1 Bft)
23.06.2019 14:05 26,3 C 19,3 C 25,9 C 29,2 C 29,2 C 2,9 C 51 % 48 % 1021,7 hPa 0,0 l/m 7,4 km/h (2 Bft) O-NO 67 0 min 15,3 C 29,2 C 7,4 km/h (2 Bft)
23.06.2019 14:11 26,4 C 19,3 C 26,2 C 29,9 C 29,9 C 3,5 C 51 % 50 % 1021,7 hPa 0,0 l/m 7,1 km/h (2 Bft) N 0 6 min 15,4 C 29,9 C 8,7 km/h (2 Bft)
23.06.2019 14:26 26,2 C 19,4 C 26,3 C 29,6 C 29,6 C 3,4 C 51 % 48 % 1020,8 hPa 0,0 l/m 10,5 km/h (2 Bft) O-NO 67 15 min 15,2 C 29,6 C 11,1 km/h (2 Bft)
23.06.2019 14:35 26,5 C 19,4 C 26,4 C 30,1 C 30,1 C 3,6 C 51 % 48 % 1020,8 hPa 0,0 l/m 9,0 km/h (2 Bft) O-NO 67 9 min 15,5 C 30,1 C 11,6 km/h (2 Bft)
23.06.2019 14:40 26,4 C 19,5 C 26,2 C 29,9 C 29,9 C 3,5 C 51 % 49 % 1020,8 hPa 0,0 l/m 8,4 km/h (2 Bft) NO 45 5 min 15,4 C 29,9 C 14,2 km/h (3 Bft)
23.06.2019 14:45 26,3 C 19,5 C 25,9 C 28,9 C 28,9 C 2,6 C 52 % 50 % 1021,4 hPa 0,0 l/m 6,8 km/h (2 Bft) NO 45 0 min 15,6 C 28,9 C 7,2 km/h (2 Bft)
23.06.2019 14:50 26,1 C 19,5 C 25,9 C 28,4 C 28,4 C 2,3 C 51 % 49 % 1021,4 hPa 0,0 l/m 6,9 km/h (2 Bft) O-SO 112 0 min 15,2 C 28,4 C 4,5 km/h (1 Bft)
23.06.2019 14:55 26,1 C 19,5 C 26,0 C 28,7 C 28,7 C 2,6 C 51 % 49 % 1021,4 hPa 0,0 l/m 6,6 km/h (2 Bft) O-NO 67 0 min 15,2 C 28,7 C 6,4 km/h (2 Bft)
23.06.2019 15:00 26,1 C 19,5 C 26,1 C 29,2 C 29,2 C 3,1 C 52 % 49 % 1021,4 hPa 0,0 l/m 6,3 km/h (2 Bft) O-NO 67 0 min 15,5 C 29,2 C 8,5 km/h (2 Bft)
23.06.2019 15:05 26,4 C 19,5 C 26,2 C 30,2 C 30,2 C 3,8 C 51 % 50 % 1021,8 hPa 0,0 l/m 6,0 km/h (2 Bft) NO 45 5 min 15,4 C 30,2 C 10,8 km/h (2 Bft)
23.06.2019 15:10 26,3 C 19,6 C 26,1 C 29,4 C 29,4 C 3,1 C 51 % 48 % 1021,8 hPa 0,0 l/m 7,6 km/h (2 Bft) O-NO 67 0 min 15,3 C 29,4 C 11,9 km/h (2 Bft)
23.06.2019 15:15 26,3 C 19,6 C 26,1 C 29,6 C 29,6 C 3,3 C 51 % 48 % 1021,8 hPa 0,0 l/m 9,0 km/h (2 Bft) NO 45 5 min 15,3 C 29,6 C 10,0 km/h (2 Bft)
23.06.2019 15:20 26,3 C 19,6 C 26,1 C 29,6 C 29,6 C 3,3 C 51 % 48 % 1021,8 hPa 0,0 l/m 7,6 km/h (2 Bft) W-NW 292 5 min 15,3 C 29,6 C 4,7 km/h (1 Bft)
23.06.2019 15:25 26,1 C 19,7 C 26,0 C 29,2 C 29,2 C 3,1 C 51 % 50 % 1021,6 hPa 0,0 l/m 6,6 km/h (2 Bft) NW 315 0 min 15,2 C 29,2 C 4,3 km/h (1 Bft)
23.06.2019 15:30 26,1 C 19,7 C 25,9 C 28,7 C 28,7 C 2,6 C 51 % 49 % 1021,6 hPa 0,0 l/m 7,4 km/h (2 Bft) O-NO 67 0 min 15,2 C 28,7 C 11,1 km/h (2 Bft)
23.06.2019 15:35 26,3 C 19,7 C 26,4 C 29,6 C 29,6 C 3,3 C 51 % 48 % 1021,6 hPa 0,0 l/m 7,1 km/h (2 Bft) O-NO 67 5 min 15,3 C 29,6 C 6,8 km/h (2 Bft)
23.06.2019 15:40 26,5 C 19,8 C 26,5 C 30,4 C 30,4 C 3,9 C 50 % 47 % 1021,6 hPa 0,0 l/m 6,9 km/h (2 Bft) O-NO 67 5 min 15,2 C 30,4 C 7,2 km/h (2 Bft)
23.06.2019 15:45 26,5 C 19,8 C 26,4 C 30,9 C 30,9 C 4,4 C 50 % 47 % 1021,6 hPa 0,0 l/m 6,0 km/h (2 Bft) N-NO 22 5 min 15,2 C 30,9 C 7,6 km/h (2 Bft)
23.06.2019 15:50 26,4 C 19,8 C 26,4 C 30,8 C 30,8 C 4,4 C 49 % 48 % 1021,6 hPa 0,0 l/m 6,9 km/h (2 Bft) N-NO 22 5 min 14,8 C 30,8 C 13,0 km/h (3 Bft)
23.06.2019 15:55 26,4 C 19,8 C 26,5 C 31,0 C 31,0 C 4,6 C 50 % 49 % 1021,6 hPa 0,0 l/m 6,8 km/h (2 Bft) NO 45 5 min 15,1 C 31,0 C 6,8 km/h (2 Bft)
23.06.2019 16:00 26,7 C 19,7 C 26,6 C 31,3 C 31,3 C 4,6 C 49 % 48 % 1021,6 hPa 0,0 l/m 6,6 km/h (2 Bft) NO 45 5 min 15,1 C 31,3 C 7,2 km/h (2 Bft)
23.06.2019 16:05 26,6 C 19,8 C 26,3 C 30,7 C 30,7 C 4,1 C 49 % 47 % 1020,8 hPa 0,0 l/m 6,1 km/h (2 Bft) NO 45 5 min 15,0 C 30,7 C 4,7 km/h (1 Bft)
23.06.2019 16:11 26,6 C 19,9 C 26,4 C 30,7 C 30,7 C 4,1 C 50 % 48 % 1020,8 hPa 0,0 l/m 5,3 km/h (1 Bft) N 0 6 min 15,3 C 30,7 C 4,2 km/h (1 Bft)
23.06.2019 16:26 26,5 C 19,9 C 26,6 C 30,3 C 30,3 C 3,8 C 49 % 47 % 1021,4 hPa 0,0 l/m 8,5 km/h (2 Bft) O-NO 67 15 min 14,9 C 30,3 C 7,4 km/h (2 Bft)
23.06.2019 16:35 26,6 C 19,9 C 26,9 C 30,9 C 30,9 C 4,3 C 48 % 46 % 1021,4 hPa 0,0 l/m 6,4 km/h (2 Bft) O-NO 67 9 min 14,7 C 30,9 C 7,4 km/h (2 Bft)
23.06.2019 16:40 26,5 C 19,9 C 26,7 C 30,8 C 30,8 C 4,3 C 48 % 45 % 1021,4 hPa 0,0 l/m 7,2 km/h (2 Bft) O-NO 67 5 min 14,6 C 30,8 C 10,3 km/h (2 Bft)
23.06.2019 16:45 26,3 C 19,9 C 26,1 C 29,9 C 29,9 C 3,6 C 48 % 46 % 1021,4 hPa 0,0 l/m 8,9 km/h (2 Bft) NO 45 5 min 14,4 C 29,9 C 10,6 km/h (2 Bft)
23.06.2019 16:50 26,0 C 19,9 C 25,9 C 28,9 C 28,9 C 2,9 C 48 % 45 % 1021,4 hPa 0,0 l/m 8,7 km/h (2 Bft) O 90 0 min 14,1 C 28,9 C 4,5 km/h (1 Bft)
23.06.2019 16:55 26,1 C 20,1 C 26,1 C 29,4 C 29,4 C 3,3 C 49 % 47 % 1021,4 hPa 0,0 l/m 7,2 km/h (2 Bft) NO 45 5 min 14,5 C 29,4 C 9,7 km/h (2 Bft)
23.06.2019 17:00 26,3 C 20,0 C 26,3 C 29,6 C 29,6 C 3,3 C 49 % 46 % 1021,4 hPa 0,0 l/m 6,9 km/h (2 Bft) NO 45 5 min 14,7 C 29,6 C 3,2 km/h (1 Bft)
23.06.2019 17:05 26,5 C 20,0 C 26,5 C 30,2 C 30,2 C 3,7 C 49 % 47 % 1021,4 hPa 0,0 l/m 6,6 km/h (2 Bft) O-NO 67 5 min 14,9 C 30,2 C 7,1 km/h (2 Bft)
23.06.2019 17:10 26,5 C 20,0 C 26,5 C 30,4 C 30,4 C 3,9 C 49 % 46 % 1021,4 hPa 0,0 l/m 5,8 km/h (2 Bft) NO 45 5 min 14,9 C 30,4 C 8,4 km/h (2 Bft)
23.06.2019 17:15 26,6 C 20,1 C 26,4 C 30,6 C 30,6 C 4,0 C 48 % 46 % 1021,4 hPa 0,0 l/m 6,3 km/h (2 Bft) O 90 5 min 14,7 C 30,6 C 8,2 km/h (2 Bft)
23.06.2019 17:20 26,4 C 20,1 C 26,2 C 30,3 C 30,3 C 3,9 C 47 % 44 % 1021,4 hPa 0,0 l/m 7,4 km/h (2 Bft) NO 45 5 min 14,2 C 30,3 C 10,3 km/h (2 Bft)
23.06.2019 17:25 26,4 C 20,1 C 26,3 C 30,3 C 30,3 C 3,9 C 47 % 44 % 1021,4 hPa 0,0 l/m 6,6 km/h (2 Bft) O-NO 67 5 min 14,2 C 30,3 C 4,0 km/h (1 Bft)
23.06.2019 17:30 26,5 C 20,1 C 26,3 C 30,5 C 30,5 C 4,0 C 47 % 44 % 1021,4 hPa 0,0 l/m 5,3 km/h (1 Bft) O-NO 67 5 min 14,3 C 30,5 C 8,0 km/h (2 Bft)
23.06.2019 17:35 26,4 C 20,1 C 26,3 C 30,6 C 30,6 C 4,2 C 47 % 44 % 1021,4 hPa 0,0 l/m 5,0 km/h (1 Bft) O-NO 67 5 min 14,2 C 30,6 C 9,5 km/h (2 Bft)
23.06.2019 17:40 26,4 C 20,1 C 26,4 C 30,6 C 30,6 C 4,2 C 48 % 46 % 1021,4 hPa 0,0 l/m 5,0 km/h (1 Bft) O-NO 67 5 min 14,5 C 30,6 C 5,3 km/h (1 Bft)
23.06.2019 17:45 26,4 C 20,1 C 26,3 C 30,7 C 30,7 C 4,3 C 48 % 44 % 1021,4 hPa 0,0 l/m 5,1 km/h (1 Bft) O-NO 67 5 min 14,5 C 30,7 C 8,0 km/h (2 Bft)
23.06.2019 17:50 26,3 C 20,1 C 26,0 C 30,0 C 30,0 C 3,7 C 47 % 45 % 1021,4 hPa 0,0 l/m 5,8 km/h (2 Bft) O-NO 67 5 min 14,1 C 30,0 C 6,9 km/h (2 Bft)
23.06.2019 17:55 26,3 C 20,1 C 26,1 C 29,6 C 29,6 C 3,3 C 48 % 45 % 1021,4 hPa 0,0 l/m 6,4 km/h (2 Bft) O-NO 67 5 min 14,4 C 29,6 C 8,7 km/h (2 Bft)
23.06.2019 18:00 26,3 C 20,1 C 25,8 C 29,0 C 29,0 C 2,7 C 47 % 45 % 1021,4 hPa 0,0 l/m 6,6 km/h (2 Bft) NO 45 0 min 14,1 C 29,0 C 5,0 km/h (1 Bft)
23.06.2019 18:05 26,1 C 20,1 C 25,9 C 28,7 C 28,7 C 2,6 C 47 % 44 % 1020,9 hPa 0,0 l/m 6,9 km/h (2 Bft) O-NO 67 0 min 13,9 C 28,7 C 8,2 km/h (2 Bft)
23.06.2019 18:11 26,1 C 20,1 C 25,9 C 29,0 C 29,0 C 2,9 C 48 % 44 % 1020,9 hPa 0,0 l/m 6,0 km/h (2 Bft) N 0 0 min 14,2 C 29,0 C 4,8 km/h (1 Bft)
23.06.2019 18:26 26,2 C 20,1 C 25,8 C 29,8 C 29,8 C 3,6 C 47 % 44 % 1021,4 hPa 0,0 l/m 5,8 km/h (2 Bft) O-NO 67 15 min 14,0 C 29,8 C 6,8 km/h (2 Bft)
23.06.2019 18:35 26,1 C 20,1 C 25,7 C 29,2 C 29,2 C 3,1 C 47 % 44 % 1021,4 hPa 0,0 l/m 7,4 km/h (2 Bft) O-NO 67 0 min 13,9 C 29,2 C 7,1 km/h (2 Bft)
23.06.2019 18:40 26,1 C 20,1 C 25,7 C 29,2 C 29,2 C 3,1 C 47 % 46 % 1021,4 hPa 0,0 l/m 7,1 km/h (2 Bft) O-NO 67 0 min 13,9 C 29,2 C 7,7 km/h (2 Bft)
23.06.2019 18:45 26,0 C 20,1 C 25,6 C 29,1 C 29,1 C 3,1 C 47 % 45 % 1021,1 hPa 0,0 l/m 6,6 km/h (2 Bft) O-NO 67 0 min 13,8 C 29,1 C 5,1 km/h (1 Bft)
23.06.2019 18:50 26,0 C 20,1 C 25,6 C 29,1 C 29,1 C 3,1 C 48 % 45 % 1021,1 hPa 0,0 l/m 6,1 km/h (2 Bft) O-NO 67 0 min 14,1 C 29,1 C 8,2 km/h (2 Bft)
23.06.2019 18:55 26,0 C 20,1 C 25,6 C 29,2 C 29,2 C 3,2 C 48 % 45 % 1021,1 hPa 0,0 l/m 5,1 km/h (1 Bft) NO 45 0 min 14,1 C 29,2 C 7,7 km/h (2 Bft)
23.06.2019 19:00 26,0 C 20,1 C 25,6 C 29,2 C 29,2 C 3,2 C 48 % 46 % 1021,1 hPa 0,0 l/m 5,5 km/h (1 Bft) S 180 0 min 14,1 C 29,2 C 5,3 km/h (1 Bft)
23.06.2019 19:05 25,9 C 20,1 C 25,5 C 29,1 C 29,1 C 3,2 C 48 % 46 % 1021,2 hPa 0,0 l/m 5,6 km/h (1 Bft) NO 45 0 min 14,0 C 29,1 C 6,8 km/h (2 Bft)
23.06.2019 19:10 25,9 C 20,1 C 25,5 C 28,9 C 28,9 C 3,0 C 48 % 46 % 1021,2 hPa 0,0 l/m 5,6 km/h (1 Bft) O-NO 67 0 min 14,0 C 28,9 C 3,9 km/h (1 Bft)
23.06.2019 19:15 25,9 C 20,1 C 25,5 C 28,9 C 28,9 C 3,0 C 49 % 48 % 1021,2 hPa 0,0 l/m 5,5 km/h (1 Bft) O-NO 67 5 min 14,4 C 28,9 C 6,8 km/h (2 Bft)
23.06.2019 19:20 25,9 C 20,1 C 25,4 C 28,9 C 28,9 C 3,0 C 48 % 46 % 1021,2 hPa 0,0 l/m 5,0 km/h (1 Bft) O-NO 67 5 min 14,0 C 28,9 C 3,9 km/h (1 Bft)
23.06.2019 19:25 25,8 C 20,1 C 25,3 C 28,7 C 28,7 C 2,9 C 48 % 46 % 1021,4 hPa 0,0 l/m 5,3 km/h (1 Bft) O-NO 67 5 min 13,9 C 28,7 C 5,5 km/h (1 Bft)
23.06.2019 19:30 25,8 C 20,1 C 25,3 C 28,7 C 28,7 C 2,9 C 49 % 48 % 1021,4 hPa 0,0 l/m 4,8 km/h (1 Bft) NO 45 5 min 14,3 C 28,7 C 5,1 km/h (1 Bft)
23.06.2019 19:35 25,6 C 20,1 C 25,2 C 28,5 C 28,5 C 2,9 C 48 % 47 % 1021,4 hPa 0,0 l/m 5,1 km/h (1 Bft) O-NO 67 5 min 13,8 C 28,5 C 5,6 km/h (1 Bft)
23.06.2019 19:40 25,7 C 20,1 C 25,1 C 28,4 C 28,4 C 2,7 C 49 % 47 % 1021,4 hPa 0,0 l/m 5,3 km/h (1 Bft) O-NO 67 5 min 14,2 C 28,4 C 5,6 km/h (1 Bft)
23.06.2019 19:45 25,5 C 20,1 C 25,0 C 28,2 C 28,2 C 2,7 C 49 % 47 % 1021,6 hPa 0,0 l/m 5,0 km/h (1 Bft) O 90 5 min 14,0 C 28,2 C 9,2 km/h (2 Bft)
23.06.2019 19:50 25,4 C 20,1 C 24,9 C 28,0 C 28,0 C 2,6 C 49 % 47 % 1021,6 hPa 0,0 l/m 5,1 km/h (1 Bft) NO 45 5 min 13,9 C 28,0 C 6,6 km/h (2 Bft)
23.06.2019 19:55 25,3 C 20,1 C 24,9 C 27,8 C 27,8 C 2,5 C 49 % 48 % 1021,6 hPa 0,0 l/m 5,1 km/h (1 Bft) O-NO 67 5 min 13,8 C 27,8 C 5,1 km/h (1 Bft)
23.06.2019 20:00 25,3 C 20,1 C 24,8 C 27,7 C 27,7 C 2,4 C 50 % 49 % 1021,6 hPa 0,0 l/m 4,8 km/h (1 Bft) O-NO 67 5 min 14,1 C 27,7 C 5,0 km/h (1 Bft)
23.06.2019 20:05 25,2 C 20,1 C 24,6 C 27,6 C 27,6 C 2,4 C 51 % 51 % 1021,7 hPa 0,0 l/m 3,9 km/h (1 Bft) N-NO 22 5 min 14,3 C 27,6 C 3,7 km/h (1 Bft)
23.06.2019 20:11 25,1 C 20,1 C 24,5 C 27,5 C 27,5 C 2,4 C 51 % 51 % 1021,7 hPa 0,0 l/m 4,0 km/h (1 Bft) N 0 6 min 14,2 C 27,5 C 4,8 km/h (1 Bft)
23.06.2019 20:26 24,5 C 20,1 C 23,9 C 26,5 C 26,5 C 2,0 C 53 % 53 % 1021,8 hPa 0,0 l/m 4,5 km/h (1 Bft) NO 45 15 min 14,3 C 26,5 C 4,5 km/h (1 Bft)
23.06.2019 20:35 24,3 C 20,1 C 23,5 C 26,0 C 26,0 C 1,7 C 54 % 54 % 1021,8 hPa 0,0 l/m 3,7 km/h (1 Bft) O-NO 67 9 min 14,4 C 26,0 C 3,4 km/h (1 Bft)
23.06.2019 20:40 24,1 C 20,1 C 23,4 C 25,7 C 25,7 C 1,6 C 54 % 54 % 1021,8 hPa 0,0 l/m 3,4 km/h (1 Bft) O-NO 67 5 min 14,2 C 25,7 C 4,0 km/h (1 Bft)
23.06.2019 20:45 23,9 C 20,1 C 23,2 C 25,1 C 25,1 C 1,2 C 55 % 56 % 1021,6 hPa 0,0 l/m 3,2 km/h (1 Bft) O-NO 67 5 min 14,3 C 25,1 C 2,4 km/h (1 Bft)
23.06.2019 20:50 23,7 C 20,2 C 23,0 C 24,3 C 24,3 C 0,6 C 55 % 56 % 1021,6 hPa 0,0 l/m 2,9 km/h (1 Bft) NO 45 0 min 14,1 C 24,3 C 2,6 km/h (1 Bft)
23.06.2019 20:55 23,5 C 20,2 C 22,7 C 23,5 C 23,4 C 0,0 C 56 % 57 % 1021,6 hPa 0,0 l/m 2,9 km/h (1 Bft) NO 45 0 min 14,2 C 23,4 C 3,7 km/h (1 Bft)
23.06.2019 21:00 23,3 C 20,2 C 22,5 C 23,2 C 23,0 C 0,0 C 57 % 58 % 1021,6 hPa 0,0 l/m 3,2 km/h (1 Bft) O-NO 67 0 min 14,3 C 23,0 C 3,7 km/h (1 Bft)
23.06.2019 21:05 23,1 C 20,2 C 22,3 C 22,9 C 22,6 C 0,0 C 58 % 59 % 1022,2 hPa 0,0 l/m 3,4 km/h (1 Bft) O-NO 67 0 min 14,4 C 22,6 C 2,6 km/h (1 Bft)
23.06.2019 21:10 22,9 C 20,2 C 22,1 C 22,7 C 22,2 C 0,0 C 58 % 60 % 1022,2 hPa 0,0 l/m 3,1 km/h (1 Bft) NO 45 0 min 14,2 C 22,2 C 3,1 km/h (1 Bft)
23.06.2019 21:15 22,6 C 20,2 C 21,8 C 22,3 C 21,8 C 0,0 C 60 % 61 % 1022,2 hPa 0,0 l/m 2,7 km/h (1 Bft) O-NO 67 0 min 14,4 C 21,8 C 2,9 km/h (1 Bft)
23.06.2019 21:20 22,4 C 20,2 C 21,7 C 22,1 C 21,5 C 0,0 C 60 % 61 % 1022,2 hPa 0,0 l/m 3,2 km/h (1 Bft) O-NO 67 0 min 14,2 C 21,5 C 4,5 km/h (1 Bft)
23.06.2019 21:25 22,3 C 20,2 C 21,5 C 22,0 C 21,3 C 0,0 C 60 % 61 % 1022,0 hPa 0,0 l/m 3,9 km/h (1 Bft) O-NO 67 0 min 14,2 C 21,3 C 3,2 km/h (1 Bft)
23.06.2019 21:30 22,0 C 20,2 C 21,3 C 21,7 C 21,1 C 0,0 C 60 % 61 % 1022,0 hPa 0,0 l/m 3,7 km/h (1 Bft) O-NO 67 0 min 13,9 C 21,1 C 2,9 km/h (1 Bft)
23.06.2019 21:35 21,9 C 20,2 C 21,1 C 21,5 C 20,8 C 0,0 C 61 % 62 % 1022,0 hPa 0,0 l/m 2,4 km/h (1 Bft) NO 45 0 min 14,0 C 20,8 C 2,3 km/h (1 Bft)
23.06.2019 21:40 21,7 C 20,2 C 21,0 C 21,3 C 20,6 C 0,0 C 61 % 62 % 1022,0 hPa 0,0 l/m 1,9 km/h (1 Bft) O-NO 67 0 min 13,8 C 20,6 C 0,0 km/h (0 Bft)
23.06.2019 21:45 21,5 C 20,2 C 20,7 C 21,1 C 20,3 C 0,0 C 61 % 62 % 1022,3 hPa 0,0 l/m 0,8 km/h (0 Bft) N-NO 22 0 min 13,7 C 20,3 C 0,0 km/h (0 Bft)
23.06.2019 21:50 21,5 C 20,2 C 20,6 C 21,0 C 20,0 C 0,0 C 61 % 63 % 1022,3 hPa 0,0 l/m 0,0 km/h (0 Bft) O-NO 67 0 min 13,7 C 20,0 C 0,0 km/h (0 Bft)
23.06.2019 21:55 21,1 C 20,2 C 20,3 C 20,6 C 19,6 C 0,0 C 62 % 64 % 1022,3 hPa 0,0 l/m 1,0 km/h (0 Bft) O-NO 67 0 min 13,5 C 19,6 C 2,4 km/h (1 Bft)
23.06.2019 22:00 20,9 C 20,2 C 20,2 C 20,4 C 19,5 C 0,0 C 63 % 65 % 1022,3 hPa 0,0 l/m 1,8 km/h (1 Bft) N-NO 22 0 min 13,6 C 19,5 C 2,7 km/h (1 Bft)
23.06.2019 22:05 20,7 C 20,2 C 20,0 C 20,3 C 19,4 C 0,0 C 63 % 65 % 1022,6 hPa 0,0 l/m 1,9 km/h (1 Bft) O-NO 67 0 min 13,4 C 19,4 C 1,6 km/h (1 Bft)
23.06.2019 22:11 20,5 C 20,2 C 19,9 C 20,1 C 19,3 C 0,0 C 63 % 65 % 1022,6 hPa 0,0 l/m 1,3 km/h (1 Bft) N 0 0 min 13,2 C 19,3 C 1,6 km/h (1 Bft)
23.06.2019 22:26 20,0 C 20,2 C 19,4 C 19,5 C 18,4 C 0,0 C 64 % 67 % 1022,5 hPa 0,0 l/m 0,0 km/h (0 Bft) N-NW 337 0 min 13,0 C 18,4 C 0,0 km/h (0 Bft)
23.06.2019 22:35 19,7 C 20,2 C 19,0 C 19,1 C 17,9 C 0,0 C 65 % 68 % 1022,5 hPa 0,0 l/m 0,0 km/h (0 Bft) O-NO 67 0 min 12,9 C 17,9 C 0,0 km/h (0 Bft)
23.06.2019 22:40 19,5 C 20,2 C 18,9 C 18,9 C 17,7 C 0,0 C 66 % 68 % 1022,5 hPa 0,0 l/m 0,0 km/h (0 Bft) O 90 0 min 13,0 C 17,7 C 0,0 km/h (0 Bft)
23.06.2019 22:45 19,3 C 20,2 C 18,7 C 18,7 C 17,4 C 0,0 C 67 % 69 % 1022,7 hPa 0,0 l/m 0,0 km/h (0 Bft) O 90 0 min 13,0 C 17,4 C 0,0 km/h (0 Bft)
23.06.2019 22:50 19,2 C 20,2 C 18,6 C 18,6 C 17,3 C 0,0 C 67 % 70 % 1022,7 hPa 0,0 l/m 0,0 km/h (0 Bft) O 90 0 min 12,9 C 17,3 C 0,0 km/h (0 Bft)
23.06.2019 22:55 19,0 C 20,2 C 18,4 C 18,3 C 16,9 C 0,0 C 67 % 71 % 1022,7 hPa 0,0 l/m 0,0 km/h (0 Bft) O 90 0 min 12,7 C 16,9 C 0,0 km/h (0 Bft)
23.06.2019 23:00 18,9 C 20,2 C 18,3 C 18,1 C 16,6 C 0,0 C 68 % 71 % 1022,7 hPa 0,0 l/m 0,0 km/h (0 Bft) O 90 0 min 12,9 C 16,6 C 0,0 km/h (0 Bft)
23.06.2019 23:05 18,6 C 20,2 C 18,0 C 17,9 C 16,4 C 0,0 C 68 % 72 % 1022,6 hPa 0,0 l/m 0,0 km/h (0 Bft) O 90 0 min 12,6 C 16,4 C 0,0 km/h (0 Bft)
23.06.2019 23:10 18,5 C 20,1 C 18,0 C 17,8 C 16,4 C 0,0 C 68 % 72 % 1022,6 hPa 0,0 l/m 0,0 km/h (0 Bft) O 90 0 min 12,5 C 16,4 C 0,0 km/h (0 Bft)
23.06.2019 23:15 18,3 C 20,1 C 17,8 C 17,6 C 16,1 C 0,0 C 70 % 73 % 1022,6 hPa 0,0 l/m 0,0 km/h (0 Bft) O 90 0 min 12,7 C 16,1 C 0,0 km/h (0 Bft)
23.06.2019 23:20 18,3 C 20,1 C 17,7 C 17,5 C 15,9 C 0,0 C 71 % 74 % 1022,6 hPa 0,0 l/m 0,0 km/h (0 Bft) O 90 0 min 12,9 C 15,9 C 0,0 km/h (0 Bft)
23.06.2019 23:25 18,0 C 20,2 C 17,5 C 17,3 C 15,8 C 0,0 C 72 % 75 % 1022,8 hPa 0,0 l/m 0,0 km/h (0 Bft) N-NO 22 0 min 12,9 C 15,8 C 0,0 km/h (0 Bft)
23.06.2019 23:30 17,9 C 20,1 C 17,4 C 17,2 C 15,8 C 0,0 C 73 % 76 % 1022,8 hPa 0,0 l/m 0,0 km/h (0 Bft) O-NO 67 0 min 13,0 C 15,8 C 0,0 km/h (0 Bft)
23.06.2019 23:35 17,7 C 20,1 C 17,2 C 17,1 C 15,8 C 0,0 C 73 % 76 % 1022,8 hPa 0,0 l/m 0,0 km/h (0 Bft) O-NO 67 0 min 12,8 C 15,8 C 0,0 km/h (0 Bft)
23.06.2019 23:40 17,6 C 20,1 C 17,1 C 16,9 C 15,6 C 0,0 C 74 % 76 % 1022,8 hPa 0,0 l/m 0,0 km/h (0 Bft) O-NO 67 0 min 12,9 C 15,6 C 0,0 km/h (0 Bft)
23.06.2019 23:45 17,5 C 20,1 C 16,9 C 16,8 C 15,3 C 0,0 C 74 % 77 % 1023,1 hPa 0,0 l/m 0,0 km/h (0 Bft) O-NO 67 0 min 12,8 C 15,3 C 0,0 km/h (0 Bft)
23.06.2019 23:50 17,3 C 20,2 C 16,8 C 16,6 C 15,2 C 0,0 C 74 % 78 % 1023,1 hPa 0,0 l/m 0,0 km/h (0 Bft) O-NO 67 0 min 12,6 C 15,2 C 0,0 km/h (0 Bft)
23.06.2019 23:55 17,0 C 20,2 C 16,7 C 16,4 C 15,2 C 0,0 C 75 % 78 % 1023,1 hPa 0,0 l/m 0,0 km/h (0 Bft) NO 45 0 min 12,5 C 15,2 C 0,0 km/h (0 Bft)
_ Min-Zeit 05:30 08:26 05:25 05:20 05:25 00:00 17:20 17:20 00:00 - 00:00 - - - 05:20 05:25 00:00
Minimum _ 12,9 C 18,6 C 12,9 C 12,6 C 11,8 C 0,0 C 47 % 44 % 1020,5 hPa - 0,0 km/h (0 Bft) - - - 9,8 C 11,8 C 0,0 km/h (0 Bft)
_ Max-Zeit 16:00 20:50 16:35 16:00 16:00 08:05 05:55 05:20 23:45 00:00 12:11 - - 08:26 14:45 16:00 12:26
Maximum _ 26,7 C 20,2 C 26,9 C 31,3 C 31,3 C 8,5 C 83 % 83 % 1023,1 hPa 0,0 l/m 10,5 km/h
N (2 Bft)
- - 15 min 15,6 C 31,3 C 21,6 km/h
NO (4 Bft)
Durchschnitt _ 20,9 C 19,5 C 20,5 C 23,2 C 23,0 C 2,5 C 63 % 63 % 1021,5 hPa #0,0 l/m 3,5 km/h (1 Bft) O-NO - #11:35 h 13,3 C 23,0 C 4,5 km/h (1 Bft)
2019 www.wetterstation-wechselburg.de